Location: ??
(34.7707°N, 135.6540°E)
Time: 22:16:15
(UTC+00:00)

Gbstr 26 Del rocket - Pass Details

Date: 09 April 2020
Orbit: 493 x 1263 km, 51.8° (Epoch: 24 May)

Event Time Altitude Azimuth Distance (km) Brightness Sun altitude
Exits shadow 18:34:23 48° 219° (SW) 1,225 4.1 -23.6°
Maximum altitude 18:36:18 85° 137° (SE) 921 3.8 -23.3°
Drops below altitude 10° 18:41:50 10° 49° (NE) 2,341 7.1 -22.3°
Sets 18:44:02 0° 48° (NE) 3,161 8.1 -21.9°
